カタログに戻る

CHECKMATE 2

運用中軍事PO
NORAD 56167·PAYLOAD·🇺🇸 United States

打ち上げ Apr 2, 2023 から Vandenberg Space Force Base

Loading…

次のパス (今後24時間)

TLE

最新Source: Space-Track

元期: Sep 14, 2026, 06:25 UTC

1 56167U 23050F   26257.26796005  .00000094  00000-0  73108-4 0  9998
2 56167  81.0084 346.2547 0007918  79.2724 280.9324 13.85173512174449

AllMySatでCHECKMATE 2をリアルタイム追跡

Download on the App Store